Location: Albany
(42.6526°N, 73.7562°W)
Time: 13:59:50
(UTC+00:00)

Cosmos 2056 Rocket - Pass Details

Date: 19 November 2019
Orbit: 743 x 800 km, 74.0° (Epoch: 06 December)

Event Time Altitude Azimuth Distance (km) Brightness Sun altitude
Rises 23:32:06 0° 336° (NNW) 3,198 6.9 -22.4°
Reaches altitude 10° 23:34:29 10° 333° (NNW) 2,275 6.2 -22.9°
Maximum altitude 23:39:32 59° 254° (WSW) 868 4.0 -23.8°
Drops below altitude 10° 23:44:37 10° 176° (S) 2,289 6.0 -24.7°
Sets 23:47:01 0° 173° (S) 3,220 6.7 -25.2°
